contact:dominique.lefevre@mio.osupytheas.fr, maurice.libes@osupytheas.fr, didier.mallarino@osupytheas.fr
Project:EMSO http://www.emso-fr.org/EMSO-France
Depth: 2436.0 m
Title:EMSO Ligure Ouest : Data MII capteur MICROCAT
DateTime_Computer,Latitude,Longitude,Temperature,Conductivity,Pressure,DateTime_Instrument
DateTime_Computer,Latitude,Longitude,degC,S m-1,dbar,DateTime_Instrument
2019-10-01T00:01:12Z,42.805,6.029,13.2961,4.59963,2469.9,2019-10-01T02:01:36Z
2019-10-01T00:04:15Z,42.805,6.029,13.2960,4.59963,2469.89,2019-10-01T02:04:39Z
2019-10-01T00:07:18Z,42.805,6.029,13.2961,4.59960,2469.937,2019-10-01T02:07:42Z
2019-10-01T00:10:21Z,42.805,6.029,13.2961,4.59960,2469.9,2019-10-01T02:10:46Z
2019-10-01T00:13:24Z,42.805,6.029,13.2962,4.59963,2469.9,2019-10-01T02:13:49Z
2019-10-01T00:16:28Z,42.805,6.029,13.2964,4.59963,2469.853,2019-10-01T02:16:52Z
2019-10-01T00:19:31Z,42.805,6.029,13.2960,4.59961,2469.876,2019-10-01T02:19:55Z
2019-10-01T00:22:34Z,42.805,6.029,13.2960,4.59961,2469.89,2019-10-01T02:22:59Z
2019-10-01T00:25:37Z,42.805,6.029,13.2959,4.59961,2469.867,2019-10-01T02:26:02Z
2019-10-01T00:28:41Z,42.805,6.029,13.2961,4.59961,2469.876,2019-10-01T02:29:05Z
2019-10-01T00:31:44Z,42.805,6.029,13.2961,4.59960,2469.89,2019-10-01T02:32:08Z
2019-10-01T00:34:47Z,42.805,6.029,13.2961,4.59966,2469.876,2019-10-01T02:35:11Z
2019-10-01T00:37:50Z,42.805,6.029,13.2960,4.59962,2469.876,2019-10-01T02:38:15Z
2019-10-01T00:40:53Z,42.805,6.029,13.2961,4.59964,2469.876,2019-10-01T02:41:18Z
2019-10-01T00:43:57Z,42.805,6.029,13.2962,4.59961,2469.876,2019-10-01T02:44:21Z
2019-10-01T00:47:00Z,42.805,6.029,13.2961,4.59961,2469.853,2019-10-01T02:47:24Z
2019-10-01T00:50:03Z,42.805,6.029,13.2961,4.59963,2469.853,2019-10-01T02:50:27Z
2019-10-01T00:53:06Z,42.805,6.029,13.2965,4.59973,2469.867,2019-10-01T02:53:31Z
2019-10-01T00:56:09Z,42.805,6.029,13.2960,4.59961,2469.867,2019-10-01T02:56:34Z
2019-10-01T00:59:13Z,42.805,6.029,13.2958,4.59960,2469.876,2019-10-01T02:59:37Z
2019-10-01T01:02:16Z,42.805,6.029,13.2961,4.59959,2469.853,2019-10-01T03:02:40Z
2019-10-01T01:05:19Z,42.805,6.029,13.2961,4.59958,2469.853,2019-10-01T03:05:43Z
2019-10-01T01:08:22Z,42.805,6.029,13.2957,4.59958,2469.844,2019-10-01T03:08:46Z
2019-10-01T01:11:25Z,42.805,6.029,13.2961,4.59962,2469.853,2019-10-01T03:11:50Z
2019-10-01T01:14:29Z,42.805,6.029,13.2958,4.59958,2469.844,2019-10-01T03:14:53Z
2019-10-01T01:17:32Z,42.805,6.029,13.2959,4.59961,2469.853,2019-10-01T03:17:56Z
2019-10-01T01:20:35Z,42.805,6.029,13.2959,4.59959,2469.867,2019-10-01T03:20:59Z
2019-10-01T01:23:38Z,42.805,6.029,13.2961,4.59958,2469.853,2019-10-01T03:24:02Z
2019-10-01T01:26:41Z,42.805,6.029,13.2963,4.59959,2469.844,2019-10-01T03:27:06Z
2019-10-01T01:29:45Z,42.805,6.029,13.2959,4.59959,2469.83,2019-10-01T03:30:09Z
2019-10-01T01:32:48Z,42.805,6.029,13.2962,4.59961,2469.844,2019-10-01T03:33:12Z
2019-10-01T01:35:51Z,42.805,6.029,13.2958,4.59959,2469.821,2019-10-01T03:36:15Z
2019-10-01T01:38:54Z,42.805,6.029,13.2959,4.59958,2469.806,2019-10-01T03:39:18Z
2019-10-01T01:41:57Z,42.805,6.029,13.2958,4.59958,2469.821,2019-10-01T03:42:22Z
2019-10-01T01:45:00Z,42.805,6.029,13.2957,4.59959,2469.821,2019-10-01T03:45:25Z
2019-10-01T01:48:04Z,42.805,6.029,13.2961,4.59964,2469.797,2019-10-01T03:48:28Z
2019-10-01T01:51:07Z,42.805,6.029,13.2960,4.59961,2469.853,2019-10-01T03:51:31Z
2019-10-01T01:54:10Z,42.805,6.029,13.2961,4.59956,2469.806,2019-10-01T03:54:34Z
2019-10-01T01:57:13Z,42.805,6.029,13.2959,4.59956,2469.821,2019-10-01T03:57:38Z
2019-10-01T02:00:16Z,42.805,6.029,13.2954,4.59958,2469.783,2019-10-01T04:00:41Z
2019-10-01T02:03:20Z,42.805,6.029,13.2958,4.59958,2469.806,2019-10-01T04:03:44Z
2019-10-01T02:06:23Z,42.805,6.029,13.2957,4.59957,2469.783,2019-10-01T04:06:47Z
2019-10-01T02:09:26Z,42.805,6.029,13.2958,4.59958,2469.797,2019-10-01T04:09:50Z
2019-10-01T02:12:29Z,42.805,6.029,13.2959,4.59956,2469.76,2019-10-01T04:12:54Z
2019-10-01T02:15:32Z,42.805,6.029,13.2958,4.59961,2469.783,2019-10-01T04:15:57Z
2019-10-01T02:18:36Z,42.805,6.029,13.2958,4.59956,2469.806,2019-10-01T04:19:00Z
2019-10-01T02:21:39Z,42.805,6.029,13.2955,4.59958,2469.844,2019-10-01T04:22:03Z
2019-10-01T02:24:42Z,42.805,6.029,13.2957,4.59973,2469.797,2019-10-01T04:25:06Z
2019-10-01T02:27:45Z,42.805,6.029,13.2959,4.59956,2469.746,2019-10-01T04:28:10Z
2019-10-01T02:30:48Z,42.805,6.029,13.2960,4.59958,2469.737,2019-10-01T04:31:13Z
2019-10-01T02:33:52Z,42.805,6.029,13.2957,4.59958,2469.76,2019-10-01T04:34:16Z
2019-10-01T02:36:55Z,42.805,6.029,13.2959,4.59960,2469.76,2019-10-01T04:37:19Z
2019-10-01T02:39:58Z,42.805,6.029,13.2958,4.59959,2469.797,2019-10-01T04:40:22Z
2019-10-01T02:43:01Z,42.805,6.029,13.2960,4.59958,2469.821,2019-10-01T04:43:25Z
2019-10-01T02:46:04Z,42.805,6.029,13.2957,4.59956,2469.806,2019-10-01T04:46:29Z
2019-10-01T02:49:08Z,42.805,6.029,13.2965,4.59961,2469.783,2019-10-01T04:49:32Z
2019-10-01T02:52:11Z,42.805,6.029,13.2960,4.59959,2469.797,2019-10-01T04:52:35Z
2019-10-01T02:55:14Z,42.805,6.029,13.2957,4.59957,2469.773,2019-10-01T04:55:38Z
2019-10-01T02:58:17Z,42.805,6.029,13.2958,4.59958,2469.783,2019-10-01T04:58:42Z
2019-10-01T03:01:20Z,42.805,6.029,13.2959,4.59961,2469.797,2019-10-01T05:01:45Z
2019-10-01T03:04:24Z,42.805,6.029,13.2964,4.59968,2469.737,2019-10-01T05:04:48Z
2019-10-01T03:07:27Z,42.805,6.029,13.2957,4.59967,2469.783,2019-10-01T05:07:51Z
2019-10-01T03:10:30Z,42.805,6.029,13.2962,4.59958,2469.75,2019-10-01T05:10:54Z
2019-10-01T03:13:33Z,42.805,6.029,13.2959,4.59958,2469.797,2019-10-01T05:13:58Z
2019-10-01T03:16:36Z,42.805,6.029,13.2957,4.59958,2469.797,2019-10-01T05:17:01Z
2019-10-01T03:19:40Z,42.805,6.029,13.2959,4.59958,2469.797,2019-10-01T05:20:04Z
2019-10-01T03:22:43Z,42.805,6.029,13.2959,4.59965,2469.76,2019-10-01T05:23:07Z
2019-10-01T03:25:46Z,42.805,6.029,13.2961,4.59961,2469.773,2019-10-01T05:26:10Z
2019-10-01T03:28:49Z,42.805,6.029,13.2957,4.59964,2469.773,2019-10-01T05:29:13Z
2019-10-01T03:31:52Z,42.805,6.029,13.2960,4.59964,2469.773,2019-10-01T05:32:17Z
2019-10-01T03:34:56Z,42.805,6.029,13.2957,4.59965,2469.797,2019-10-01T05:35:20Z
2019-10-01T03:37:59Z,42.805,6.029,13.2964,4.59960,2469.773,2019-10-01T05:38:23Z
2019-10-01T03:41:02Z,42.805,6.029,13.2964,4.59962,2469.821,2019-10-01T05:41:26Z
2019-10-01T03:44:05Z,42.805,6.029,13.2961,4.59960,2469.783,2019-10-01T05:44:29Z
2019-10-01T03:47:08Z,42.805,6.029,13.2959,4.59969,2469.821,2019-10-01T05:47:33Z
2019-10-01T03:50:12Z,42.805,6.029,13.2962,4.59960,2469.797,2019-10-01T05:50:36Z
2019-10-01T03:53:15Z,42.805,6.029,13.2961,4.59962,2469.797,2019-10-01T05:53:39Z
2019-10-01T03:56:18Z,42.805,6.029,13.2961,4.59960,2469.773,2019-10-01T05:56:42Z
2019-10-01T03:59:21Z,42.805,6.029,13.2962,4.59964,2469.76,2019-10-01T05:59:45Z
2019-10-01T04:02:24Z,42.805,6.029,13.2957,4.59959,2469.797,2019-10-01T06:02:49Z
2019-10-01T04:05:28Z,42.805,6.029,13.2955,4.59957,2469.773,2019-10-01T06:05:52Z
2019-10-01T04:08:31Z,42.805,6.029,13.2960,4.59957,2469.806,2019-10-01T06:08:55Z
2019-10-01T04:11:34Z,42.805,6.029,13.2956,4.59967,2469.783,2019-10-01T06:11:59Z
2019-10-01T04:14:37Z,42.805,6.029,13.2961,4.59959,2469.797,2019-10-01T06:15:02Z
2019-10-01T04:17:41Z,42.805,6.029,13.2960,4.59958,2469.783,2019-10-01T06:18:05Z
2019-10-01T04:20:44Z,42.805,6.029,13.2954,4.59960,2469.797,2019-10-01T06:21:08Z
2019-10-01T04:23:47Z,42.805,6.029,13.2958,4.59968,2469.76,2019-10-01T06:24:11Z
2019-10-01T04:26:50Z,42.805,6.029,13.2962,4.59979,2469.783,2019-10-01T06:27:14Z
2019-10-01T04:29:53Z,42.805,6.029,13.2961,4.59964,2469.821,2019-10-01T06:30:18Z
2019-10-01T04:32:57Z,42.805,6.029,13.2971,4.59961,2469.783,2019-10-01T06:33:21Z
2019-10-01T04:36:00Z,42.805,6.029,13.2961,4.59962,2469.806,2019-10-01T06:36:24Z
2019-10-01T04:39:03Z,42.805,6.029,13.2964,4.59961,2469.773,2019-10-01T06:39:27Z
2019-10-01T04:42:06Z,42.805,6.029,13.2967,4.59963,2469.83,2019-10-01T06:42:30Z
2019-10-01T04:45:09Z,42.805,6.029,13.2964,4.59959,2469.806,2019-10-01T06:45:34Z
2019-10-01T04:48:12Z,42.805,6.029,13.2953,4.59973,2469.797,2019-10-01T06:48:37Z
2019-10-01T04:51:16Z,42.805,6.029,13.2957,4.59966,2469.806,2019-10-01T06:51:40Z
2019-10-01T04:54:19Z,42.805,6.029,13.2959,4.59962,2469.844,2019-10-01T06:54:43Z
2019-10-01T04:57:22Z,42.805,6.029,13.2959,4.59963,2469.844,2019-10-01T06:57:47Z
2019-10-01T05:00:25Z,42.805,6.029,13.2958,4.59966,2469.821,2019-10-01T07:00:50Z
2019-10-01T05:03:29Z,42.805,6.029,13.2960,4.59962,2469.83,2019-10-01T07:03:53Z
2019-10-01T05:06:32Z,42.805,6.029,13.2958,4.59964,2469.83,2019-10-01T07:06:56Z
2019-10-01T05:09:35Z,42.805,6.029,13.2959,4.59960,2469.844,2019-10-01T07:09:59Z
2019-10-01T05:12:38Z,42.805,6.029,13.2956,4.59961,2469.844,2019-10-01T07:13:03Z
2019-10-01T05:15:42Z,42.805,6.029,13.2955,4.59964,2469.806,2019-10-01T07:16:06Z
2019-10-01T05:18:45Z,42.805,6.029,13.2955,4.59960,2469.844,2019-10-01T07:19:09Z
2019-10-01T05:21:48Z,42.805,6.029,13.2957,4.59962,2469.844,2019-10-01T07:22:12Z
2019-10-01T05:24:51Z,42.805,6.029,13.2958,4.59971,2469.844,2019-10-01T07:25:15Z
2019-10-01T05:27:54Z,42.805,6.029,13.2955,4.59963,2469.83,2019-10-01T07:28:19Z
2019-10-01T05:30:58Z,42.805,6.029,13.2956,4.59960,2469.816,2019-10-01T07:31:22Z
2019-10-01T05:34:01Z,42.805,6.029,13.2960,4.59961,2469.806,2019-10-01T07:34:25Z
2019-10-01T05:37:04Z,42.805,6.029,13.2964,4.59971,2469.867,2019-10-01T07:37:28Z
2019-10-01T05:40:07Z,42.805,6.029,13.2957,4.59971,2469.853,2019-10-01T07:40:31Z
2019-10-01T05:43:10Z,42.805,6.029,13.2961,4.59961,2469.853,2019-10-01T07:43:35Z
2019-10-01T05:46:14Z,42.805,6.029,13.2953,4.59961,2469.876,2019-10-01T07:46:38Z
2019-10-01T05:49:17Z,42.805,6.029,13.2959,4.59969,2469.876,2019-10-01T07:49:41Z
2019-10-01T05:52:20Z,42.805,6.029,13.2961,4.59973,2469.853,2019-10-01T07:52:44Z
2019-10-01T05:55:23Z,42.805,6.029,13.2957,4.59968,2469.89,2019-10-01T07:55:48Z
2019-10-01T05:58:27Z,42.805,6.029,13.2960,4.59975,2469.89,2019-10-01T07:58:51Z
2019-10-01T06:01:30Z,42.805,6.029,13.2956,4.59970,2469.876,2019-10-01T08:01:54Z
2019-10-01T06:04:33Z,42.805,6.029,13.2960,4.59960,2469.9,2019-10-01T08:04:57Z
2019-10-01T06:07:36Z,42.805,6.029,13.2960,4.59968,2469.914,2019-10-01T08:08:00Z
2019-10-01T06:10:40Z,42.805,6.029,13.2961,4.59969,2469.9,2019-10-01T08:11:04Z
2019-10-01T06:13:43Z,42.805,6.029,13.2960,4.59961,2469.9,2019-10-01T08:14:07Z
2019-10-01T06:16:46Z,42.805,6.029,13.2957,4.59964,2469.914,2019-10-01T08:17:10Z
2019-10-01T06:19:49Z,42.805,6.029,13.2957,4.59972,2469.914,2019-10-01T08:20:14Z
2019-10-01T06:22:53Z,42.805,6.029,13.2961,4.59973,2469.9,2019-10-01T08:23:17Z
2019-10-01T06:25:56Z,42.805,6.029,13.2958,4.59970,2469.914,2019-10-01T08:26:20Z
2019-10-01T06:28:59Z,42.805,6.029,13.2964,4.59971,2469.923,2019-10-01T08:29:23Z
2019-10-01T06:32:02Z,42.805,6.029,13.2957,4.59969,2469.937,2019-10-01T08:32:27Z
2019-10-01T06:35:05Z,42.805,6.029,13.2958,4.59966,2469.923,2019-10-01T08:35:30Z
2019-10-01T06:38:09Z,42.805,6.029,13.2957,4.59969,2469.96,2019-10-01T08:38:33Z
2019-10-01T06:41:12Z,42.805,6.029,13.2959,4.59968,2469.947,2019-10-01T08:41:36Z
2019-10-01T06:44:15Z,42.805,6.029,13.2959,4.59972,2469.923,2019-10-01T08:44:39Z
2019-10-01T06:47:18Z,42.805,6.029,13.2954,4.59973,2469.97,2019-10-01T08:47:43Z
2019-10-01T06:50:22Z,42.805,6.029,13.2960,4.59963,2469.96,2019-10-01T08:50:46Z
2019-10-01T06:53:25Z,42.805,6.029,13.2957,4.59968,2469.947,2019-10-01T08:53:49Z
2019-10-01T06:56:28Z,42.805,6.029,13.2961,4.59968,2469.947,2019-10-01T08:56:52Z
2019-10-01T06:59:31Z,42.805,6.029,13.2961,4.59967,2469.96,2019-10-01T08:59:56Z
2019-10-01T07:02:34Z,42.805,6.029,13.2958,4.59967,2469.923,2019-10-01T09:02:59Z
2019-10-01T07:05:38Z,42.805,6.029,13.2960,4.59971,2469.96,2019-10-01T09:06:02Z
2019-10-01T07:08:41Z,42.805,6.029,13.2960,4.59968,2469.97,2019-10-01T09:09:05Z
2019-10-01T07:11:44Z,42.805,6.029,13.2956,4.59976,2469.993,2019-10-01T09:12:08Z
2019-10-01T07:14:47Z,42.805,6.029,13.2957,4.59969,2469.947,2019-10-01T09:15:11Z
2019-10-01T07:17:50Z,42.805,6.029,13.2958,4.59967,2469.97,2019-10-01T09:18:15Z
2019-10-01T07:20:54Z,42.805,6.029,13.2960,4.59971,2469.947,2019-10-01T09:21:18Z
2019-10-01T07:23:57Z,42.805,6.029,13.2958,4.59970,2469.947,2019-10-01T09:24:21Z
2019-10-01T07:27:00Z,42.805,6.029,13.2958,4.59966,2469.993,2019-10-01T09:27:24Z
2019-10-01T07:30:03Z,42.805,6.029,13.2960,4.59960,2469.993,2019-10-01T09:30:27Z
2019-10-01T07:33:06Z,42.805,6.029,13.2961,4.59976,2470.007,2019-10-01T09:33:31Z
2019-10-01T07:36:10Z,42.805,6.029,13.2958,4.59974,2469.97,2019-10-01T09:36:34Z
2019-10-01T07:39:13Z,42.805,6.029,13.2957,4.59965,2469.947,2019-10-01T09:39:37Z
2019-10-01T07:42:16Z,42.805,6.029,13.2958,4.59968,2470.007,2019-10-01T09:42:40Z
2019-10-01T07:45:19Z,42.805,6.029,13.2961,4.59966,2469.984,2019-10-01T09:45:43Z
2019-10-01T07:48:22Z,42.805,6.029,13.2957,4.59963,2469.984,2019-10-01T09:48:47Z
2019-10-01T07:51:26Z,42.805,6.029,13.2957,4.59963,2469.97,2019-10-01T09:51:50Z
2019-10-01T07:54:29Z,42.805,6.029,13.2956,4.59964,2469.97,2019-10-01T09:54:53Z
2019-10-01T07:57:32Z,42.805,6.029,13.2957,4.59964,2470.03,2019-10-01T09:57:56Z
2019-10-01T08:00:35Z,42.805,6.029,13.2963,4.59963,2469.984,2019-10-01T10:01:00Z
2019-10-01T08:03:38Z,42.805,6.029,13.2962,4.59971,2470.04,2019-10-01T10:04:03Z
2019-10-01T08:06:42Z,42.805,6.029,13.2958,4.59968,2470.007,2019-10-01T10:07:06Z
2019-10-01T08:09:45Z,42.805,6.029,13.2957,4.59967,2469.993,2019-10-01T10:10:09Z
2019-10-01T08:12:48Z,42.805,6.029,13.2959,4.59968,2470.03,2019-10-01T10:13:12Z
2019-10-01T08:15:51Z,42.805,6.029,13.2958,4.59961,2470.007,2019-10-01T10:16:16Z
2019-10-01T08:18:55Z,42.805,6.029,13.2958,4.59962,2470.017,2019-10-01T10:19:19Z
2019-10-01T08:21:58Z,42.805,6.029,13.2957,4.59964,2470.017,2019-10-01T10:22:22Z
2019-10-01T08:25:01Z,42.805,6.029,13.2960,4.59962,2470.017,2019-10-01T10:25:25Z
2019-10-01T08:28:04Z,42.805,6.029,13.2961,4.59969,2470.017,2019-10-01T10:28:28Z
2019-10-01T08:31:07Z,42.805,6.029,13.2963,4.59968,2470.007,2019-10-01T10:31:32Z
2019-10-01T08:34:11Z,42.805,6.029,13.2958,4.59960,2470.03,2019-10-01T10:34:35Z
2019-10-01T08:37:14Z,42.805,6.029,13.2958,4.59966,2470.017,2019-10-01T10:37:38Z
2019-10-01T08:40:17Z,42.805,6.029,13.2953,4.59962,2470.053,2019-10-01T10:40:41Z
2019-10-01T08:43:20Z,42.805,6.029,13.2958,4.59959,2470.053,2019-10-01T10:43:45Z
2019-10-01T08:46:23Z,42.805,6.029,13.2957,4.59964,2469.993,2019-10-01T10:46:48Z
2019-10-01T08:49:27Z,42.805,6.029,13.2959,4.59959,2469.993,2019-10-01T10:49:51Z
2019-10-01T08:52:30Z,42.805,6.029,13.2958,4.59961,2470.017,2019-10-01T10:52:54Z
2019-10-01T08:55:33Z,42.805,6.029,13.2958,4.59962,2470.03,2019-10-01T10:55:57Z
2019-10-01T08:58:36Z,42.805,6.029,13.2957,4.59960,2469.993,2019-10-01T10:59:01Z
2019-10-01T09:01:39Z,42.805,6.029,13.2954,4.59960,2469.993,2019-10-01T11:02:04Z
2019-10-01T09:04:43Z,42.805,6.029,13.2961,4.59962,2470.04,2019-10-01T11:05:07Z
2019-10-01T09:07:46Z,42.805,6.029,13.2958,4.59960,2469.993,2019-10-01T11:08:10Z
2019-10-01T09:10:49Z,42.805,6.029,13.2957,4.59963,2470.053,2019-10-01T11:11:13Z
2019-10-01T09:13:52Z,42.805,6.029,13.2959,4.59964,2470.017,2019-10-01T11:14:16Z
2019-10-01T09:16:55Z,42.805,6.029,13.2958,4.59960,2470.017,2019-10-01T11:17:20Z
2019-10-01T09:19:59Z,42.805,6.029,13.2961,4.59961,2470.007,2019-10-01T11:20:23Z
2019-10-01T09:23:02Z,42.805,6.029,13.2962,4.59961,2469.97,2019-10-01T11:23:26Z
2019-10-01T09:26:05Z,42.805,6.029,13.2961,4.59962,2470.03,2019-10-01T11:26:29Z
2019-10-01T09:29:08Z,42.805,6.029,13.2958,4.59964,2469.993,2019-10-01T11:29:33Z
2019-10-01T09:32:11Z,42.805,6.029,13.2957,4.59961,2470.007,2019-10-01T11:32:36Z
2019-10-01T09:35:15Z,42.805,6.029,13.2961,4.59960,2470.03,2019-10-01T11:35:39Z
2019-10-01T09:38:18Z,42.805,6.029,13.2958,4.59960,2470.03,2019-10-01T11:38:42Z
2019-10-01T09:41:21Z,42.805,6.029,13.2964,4.59961,2469.984,2019-10-01T11:41:46Z
2019-10-01T09:44:24Z,42.805,6.029,13.2959,4.59959,2470.017,2019-10-01T11:44:49Z
2019-10-01T09:47:28Z,42.805,6.029,13.2956,4.59961,2469.993,2019-10-01T11:47:52Z
2019-10-01T09:50:31Z,42.805,6.029,13.2957,4.59962,2469.984,2019-10-01T11:50:55Z
2019-10-01T09:53:34Z,42.805,6.029,13.2959,4.59961,2469.993,2019-10-01T11:53:58Z
2019-10-01T09:56:37Z,42.805,6.029,13.2956,4.59961,2470.007,2019-10-01T11:57:02Z
2019-10-01T09:59:41Z,42.805,6.029,13.2959,4.59960,2469.984,2019-10-01T12:00:05Z
2019-10-01T10:02:44Z,42.805,6.029,13.2956,4.59961,2469.993,2019-10-01T12:03:08Z
2019-10-01T10:05:47Z,42.805,6.029,13.2958,4.59970,2469.97,2019-10-01T12:06:11Z
2019-10-01T10:08:50Z,42.805,6.029,13.2957,4.59963,2469.96,2019-10-01T12:09:14Z
2019-10-01T10:11:53Z,42.805,6.029,13.2959,4.59963,2469.96,2019-10-01T12:12:18Z
2019-10-01T10:14:57Z,42.805,6.029,13.2961,4.59962,2469.993,2019-10-01T12:15:21Z
2019-10-01T10:18:00Z,42.805,6.029,13.2957,4.59959,2469.993,2019-10-01T12:18:24Z
2019-10-01T10:21:03Z,42.805,6.029,13.2957,4.59963,2469.993,2019-10-01T12:21:27Z
2019-10-01T10:24:06Z,42.805,6.029,13.2958,4.59973,2469.97,2019-10-01T12:24:30Z
2019-10-01T10:27:09Z,42.805,6.029,13.2960,4.59978,2469.96,2019-10-01T12:27:34Z
2019-10-01T10:30:13Z,42.805,6.029,13.2957,4.59968,2469.97,2019-10-01T12:30:37Z
2019-10-01T10:33:16Z,42.805,6.029,13.2958,4.59967,2470.007,2019-10-01T12:33:40Z
2019-10-01T10:36:19Z,42.805,6.029,13.2961,4.59964,2469.97,2019-10-01T12:36:43Z
2019-10-01T10:39:22Z,42.805,6.029,13.2958,4.59970,2469.984,2019-10-01T12:39:47Z
2019-10-01T10:42:26Z,42.805,6.029,13.2956,4.59964,2469.947,2019-10-01T12:42:50Z
2019-10-01T10:45:29Z,42.805,6.029,13.2957,4.59961,2469.96,2019-10-01T12:45:53Z
2019-10-01T10:48:32Z,42.805,6.029,13.2957,4.59964,2469.937,2019-10-01T12:48:56Z
2019-10-01T10:51:35Z,42.805,6.029,13.2959,4.59964,2469.984,2019-10-01T12:52:00Z
2019-10-01T10:54:38Z,42.805,6.029,13.2958,4.59963,2469.97,2019-10-01T12:55:03Z
2019-10-01T10:57:42Z,42.805,6.029,13.2960,4.59968,2469.97,2019-10-01T12:58:06Z
2019-10-01T11:00:45Z,42.805,6.029,13.2964,4.59965,2469.947,2019-10-01T13:01:09Z
2019-10-01T11:03:48Z,42.805,6.029,13.2958,4.59964,2470.007,2019-10-01T13:04:12Z
2019-10-01T11:06:51Z,42.805,6.029,13.2963,4.59963,2469.923,2019-10-01T13:07:16Z
2019-10-01T11:09:54Z,42.805,6.029,13.2964,4.59968,2469.914,2019-10-01T13:10:19Z
2019-10-01T11:12:58Z,42.805,6.029,13.2961,4.59964,2469.96,2019-10-01T13:13:22Z
2019-10-01T11:16:01Z,42.805,6.029,13.2960,4.59966,2469.923,2019-10-01T13:16:25Z
2019-10-01T11:19:04Z,42.805,6.029,13.2961,4.59961,2469.993,2019-10-01T13:19:28Z
2019-10-01T11:22:07Z,42.805,6.029,13.2963,4.59973,2469.96,2019-10-01T13:22:32Z
2019-10-01T11:25:11Z,42.805,6.029,13.2967,4.59963,2469.937,2019-10-01T13:25:35Z
2019-10-01T11:28:14Z,42.805,6.029,13.2962,4.59965,2469.937,2019-10-01T13:28:38Z
2019-10-01T11:31:17Z,42.805,6.029,13.2961,4.59966,2469.947,2019-10-01T13:31:41Z
2019-10-01T11:34:20Z,42.805,6.029,13.2967,4.59963,2469.923,2019-10-01T13:34:44Z
2019-10-01T11:37:23Z,42.805,6.029,13.2968,4.59964,2469.937,2019-10-01T13:37:48Z
2019-10-01T11:40:26Z,42.805,6.029,13.2967,4.59961,2469.923,2019-10-01T13:40:51Z
2019-10-01T11:43:30Z,42.805,6.029,13.2972,4.59963,2469.937,2019-10-01T13:43:54Z
2019-10-01T11:46:33Z,42.805,6.029,13.2961,4.59964,2469.96,2019-10-01T13:46:57Z
2019-10-01T11:49:36Z,42.805,6.029,13.2960,4.59961,2469.914,2019-10-01T13:50:00Z
2019-10-01T11:52:39Z,42.805,6.029,13.2964,4.59968,2469.867,2019-10-01T13:53:04Z
2019-10-01T11:55:43Z,42.805,6.029,13.2963,4.59961,2469.914,2019-10-01T13:56:07Z
2019-10-01T11:58:46Z,42.805,6.029,13.2966,4.59961,2469.937,2019-10-01T13:59:10Z
2019-10-01T12:01:49Z,42.805,6.029,13.2966,4.59970,2469.947,2019-10-01T14:02:13Z
2019-10-01T12:04:52Z,42.805,6.029,13.2960,4.59983,2469.914,2019-10-01T14:05:16Z
2019-10-01T12:07:55Z,42.805,6.029,13.2961,4.59966,2469.853,2019-10-01T14:08:20Z
2019-10-01T12:10:59Z,42.805,6.029,13.2958,4.59979,2469.9,2019-10-01T14:11:23Z
2019-10-01T12:14:02Z,42.805,6.029,13.2959,4.59966,2469.89,2019-10-01T14:14:26Z
2019-10-01T12:17:05Z,42.805,6.029,13.2957,4.59966,2469.876,2019-10-01T14:17:29Z
2019-10-01T12:20:08Z,42.805,6.029,13.2958,4.59966,2469.89,2019-10-01T14:20:32Z
2019-10-01T12:23:11Z,42.805,6.029,13.2966,4.59964,2469.914,2019-10-01T14:23:36Z
2019-10-01T12:26:14Z,42.805,6.029,13.2967,4.59963,2469.876,2019-10-01T14:26:39Z
2019-10-01T12:29:18Z,42.805,6.029,13.2966,4.59968,2469.9,2019-10-01T14:29:42Z
2019-10-01T12:32:21Z,42.805,6.029,13.2959,4.59973,2469.867,2019-10-01T14:32:45Z
2019-10-01T12:35:24Z,42.805,6.029,13.2961,4.59968,2469.83,2019-10-01T14:35:48Z
2019-10-01T12:38:27Z,42.805,6.029,13.2961,4.59969,2469.9,2019-10-01T14:38:52Z
2019-10-01T12:41:30Z,42.805,6.029,13.2959,4.59979,2469.914,2019-10-01T14:41:55Z
2019-10-01T12:44:34Z,42.805,6.029,13.2963,4.59970,2469.867,2019-10-01T14:44:58Z
2019-10-01T12:47:37Z,42.805,6.029,13.2963,4.59969,2469.89,2019-10-01T14:48:01Z
2019-10-01T12:50:40Z,42.805,6.029,13.2958,4.59968,2469.876,2019-10-01T14:51:04Z
2019-10-01T12:53:43Z,42.805,6.029,13.2961,4.59963,2469.844,2019-10-01T14:54:08Z
2019-10-01T12:56:46Z,42.805,6.029,13.2960,4.59966,2469.853,2019-10-01T14:57:11Z
2019-10-01T12:59:50Z,42.805,6.029,13.2964,4.59963,2469.867,2019-10-01T15:00:14Z
2019-10-01T13:02:53Z,42.805,6.029,13.2960,4.59961,2469.806,2019-10-01T15:03:17Z
2019-10-01T13:05:56Z,42.805,6.029,13.2961,4.59964,2469.867,2019-10-01T15:06:20Z
2019-10-01T13:08:59Z,42.805,6.029,13.2959,4.59966,2469.806,2019-10-01T15:09:23Z
2019-10-01T13:12:02Z,42.805,6.029,13.2957,4.59961,2469.867,2019-10-01T15:12:27Z
2019-10-01T13:15:05Z,42.805,6.029,13.2961,4.59966,2469.797,2019-10-01T15:15:30Z
2019-10-01T13:18:09Z,42.805,6.029,13.2962,4.59978,2469.83,2019-10-01T15:18:33Z
2019-10-01T13:21:12Z,42.805,6.029,13.2958,4.59971,2469.853,2019-10-01T15:21:36Z
2019-10-01T13:24:15Z,42.805,6.029,13.2959,4.59991,2469.83,2019-10-01T15:24:39Z
2019-10-01T13:27:18Z,42.805,6.029,13.2957,4.59973,2469.844,2019-10-01T15:27:43Z
2019-10-01T13:30:21Z,42.805,6.029,13.2957,4.59964,2469.83,2019-10-01T15:30:46Z
2019-10-01T13:33:25Z,42.805,6.029,13.2961,4.59961,2469.821,2019-10-01T15:33:49Z
2019-10-01T13:36:28Z,42.805,6.029,13.2958,4.59970,2469.844,2019-10-01T15:36:52Z
2019-10-01T13:39:31Z,42.805,6.029,13.2958,4.59964,2469.821,2019-10-01T15:39:55Z
2019-10-01T13:42:34Z,42.805,6.029,13.2959,4.59970,2469.821,2019-10-01T15:42:59Z
2019-10-01T13:45:37Z,42.805,6.029,13.2953,4.59971,2469.853,2019-10-01T15:46:02Z
2019-10-01T13:48:41Z,42.805,6.029,13.2960,4.59986,2469.867,2019-10-01T15:49:05Z
2019-10-01T13:51:44Z,42.805,6.029,13.2961,4.59973,2469.83,2019-10-01T15:52:08Z
2019-10-01T13:54:47Z,42.805,6.029,13.2961,4.59961,2469.806,2019-10-01T15:55:11Z
2019-10-01T13:57:50Z,42.805,6.029,13.2958,4.59960,2469.83,2019-10-01T15:58:15Z
2019-10-01T14:00:54Z,42.805,6.029,13.2957,4.59966,2469.806,2019-10-01T16:01:18Z
2019-10-01T14:03:57Z,42.805,6.029,13.2958,4.59964,2469.821,2019-10-01T16:04:21Z
2019-10-01T14:07:00Z,42.805,6.029,13.2960,4.59966,2469.821,2019-10-01T16:07:24Z
2019-10-01T14:10:03Z,42.805,6.029,13.2960,4.59975,2469.821,2019-10-01T16:10:28Z
2019-10-01T14:13:06Z,42.805,6.029,13.2958,4.59971,2469.844,2019-10-01T16:13:31Z
2019-10-01T14:16:10Z,42.805,6.029,13.2955,4.59979,2469.853,2019-10-01T16:16:34Z
2019-10-01T14:19:13Z,42.805,6.029,13.2961,4.59964,2469.844,2019-10-01T16:19:37Z
2019-10-01T14:22:16Z,42.805,6.029,13.2955,4.59961,2469.783,2019-10-01T16:22:40Z
2019-10-01T14:25:19Z,42.805,6.029,13.2958,4.59960,2469.783,2019-10-01T16:25:44Z
2019-10-01T14:28:22Z,42.805,6.029,13.2959,4.59960,2469.806,2019-10-01T16:28:47Z
2019-10-01T14:31:26Z,42.805,6.029,13.2957,4.59964,2469.806,2019-10-01T16:31:50Z
2019-10-01T14:34:29Z,42.805,6.029,13.2954,4.59963,2469.806,2019-10-01T16:34:53Z
2019-10-01T14:37:32Z,42.805,6.029,13.2956,4.59961,2469.797,2019-10-01T16:37:56Z
2019-10-01T14:40:35Z,42.805,6.029,13.2957,4.59961,2469.83,2019-10-01T16:40:59Z
2019-10-01T14:43:38Z,42.805,6.029,13.2958,4.59961,2469.806,2019-10-01T16:44:03Z
2019-10-01T14:46:42Z,42.805,6.029,13.2962,4.59987,2469.821,2019-10-01T16:47:06Z
2019-10-01T14:49:45Z,42.805,6.029,13.2958,4.59985,2469.821,2019-10-01T16:50:09Z
2019-10-01T14:52:48Z,42.805,6.029,13.2957,4.59968,2469.783,2019-10-01T16:53:12Z
2019-10-01T14:55:51Z,42.805,6.029,13.2958,4.59971,2469.797,2019-10-01T16:56:15Z
2019-10-01T14:58:55Z,42.805,6.029,13.2957,4.59971,2469.783,2019-10-01T16:59:19Z
2019-10-01T15:01:58Z,42.805,6.029,13.2958,4.59973,2469.821,2019-10-01T17:02:22Z